• In Czech Republic
  • List of Countries
  • For 7 days
  • Water Temperature
  • Satellite Maps
  • Weather Map
  • Weather Widgets
  • user-avatar
    Login

    Hourly Weather Valle Hermoso

    Today, 24 November, Friday

    Time Temperature Precipitation Wind Pressure Humidity
    00:00 +16°C° 0 mm 1 mps 762 mmHg 54%
    01:00 +16°C° 0 mm 1 mps 761 mmHg 56%
    02:00 +15°C° 0 mm 1 mps 761 mmHg 58%
    03:00 +15°C° 0 mm 1 mps 761 mmHg 57%
    04:00 +15°C° 0 mm 1 mps 761 mmHg 57%
    05:00 +15°C° 0 mm 1 mps 761 mmHg 57%
    06:00 +16°C° 0 mm 1 mps 761 mmHg 53%
    07:00 +19°C° 0 mm 1 mps 761 mmHg 48%
    08:00 +20°C° 0 mm 1 mps 761 mmHg 43%
    09:00 +21°C° 0 mm 2 mps 761 mmHg 39%
    10:00 +23°C° 0 mm 2 mps 760 mmHg 35%
    11:00 +25°C° 0 mm 3 mps 760 mmHg 31%
    12:00 +26°C° 0 mm 3 mps 759 mmHg 30%
    13:00 +26°C° 0 mm 3 mps 759 mmHg 29%
    14:00 +27°C° 0 mm 3 mps 758 mmHg 28%
    15:00 +26°C° 0 mm 3 mps 758 mmHg 33%
    16:00 +25°C° 0 mm 4 mps 758 mmHg 39%
    17:00 +22°C° 0 mm 4 mps 758 mmHg 44%
    18:00 +22°C° 0 mm 4 mps 758 mmHg 49%
    19:00 +21°C° 0 mm 4 mps 758 mmHg 53%
    20:00 +21°C° 0 mm 4 mps 758 mmHg 58%
    21:00 +21°C° 0 mm 4 mps 758 mmHg 61%
    22:00 +21°C° 0 mm 4 mps 758 mmHg 64%
    23:00 +20°C° 0 mm 4 mps 758 mmHg 67%

    Tomorrow, 25 November, Saturday

    Time Temperature Precipitation Wind Pressure Humidity
    00:00 +20°C° 0 mm 4 mps 758 mmHg 69%
    01:00 +20°C° 0 mm 4 mps 758 mmHg 70%
    02:00 +20°C° 0 mm 4 mps 757 mmHg 72%
    03:00 +19°C° 0 mm 4 mps 757 mmHg 71%
    04:00 +19°C° 0 mm 4 mps 757 mmHg 70%
    05:00 +19°C° 0 mm 4 mps 757 mmHg 70%
    06:00 +20°C° 0 mm 4 mps 757 mmHg 64%
    07:00 +21°C° 0 mm 5 mps 758 mmHg 59%
    08:00 +22°C° 0 mm 5 mps 758 mmHg 54%
    09:00 +25°C° 0 mm 5 mps 758 mmHg 48%
    10:00 +27°C° 0 mm 5 mps 758 mmHg 42%
    11:00 +29°C° 0 mm 5 mps 758 mmHg 36%
    12:00 +30°C° 0 mm 4 mps 758 mmHg 35%
    13:00 +30°C° 0 mm 4 mps 758 mmHg 33%
    14:00 +32°C° 0 mm 4 mps 757 mmHg 32%
    15:00 +29°C° 0 mm 4 mps 758 mmHg 39%
    16:00 +28°C° 0 mm 4 mps 758 mmHg 46%
    17:00 +26°C° 0 mm 3 mps 758 mmHg 53%
    18:00 +26°C° 0 mm 3 mps 759 mmHg 60%
    19:00 +25°C° 0 mm 3 mps 760 mmHg 67%
    20:00 +24°C° 0 mm 3 mps 760 mmHg 74%
    21:00 +24°C° 0 mm 2 mps 761 mmHg 77%
    22:00 +23°C° 0 mm 2 mps 761 mmHg 80%
    23:00 +23°C° 0 mm 2 mps 762 mmHg 84%

    Day after tomorrow, 26 November, Sunday

    Time Temperature Precipitation Wind Pressure Humidity
    00:00 +23°C° 0 mm 1 mps 762 mmHg 86%
    01:00 +22°C° 0 mm 1 mps 762 mmHg 89%
    02:00 +20°C° 0 mm 0 mps 762 mmHg 91%
    03:00 +22°C° 0.1 mm 1 mps 762 mmHg 90%
    04:00 +22°C° 0.1 mm 1 mps 763 mmHg 89%
    05:00 +21°C° 0.1 mm 2 mps 763 mmHg 89%
    06:00 +23°C° 0.1 mm 2 mps 764 mmHg 83%
    07:00 +24°C° 0.1 mm 2 mps 765 mmHg 78%
    08:00 +25°C° 0.1 mm 2 mps 765 mmHg 72%
    09:00 +26°C° 0.2 mm 2 mps 765 mmHg 67%
    10:00 +27°C° 0.2 mm 2 mps 765 mmHg 61%
    11:00 +28°C° 0.2 mm 2 mps 765 mmHg 56%
    12:00 +27°C° 0.4 mm 2 mps 765 mmHg 57%
    13:00 +27°C° 0.4 mm 3 mps 764 mmHg 58%
    14:00 +27°C° 0.4 mm 3 mps 763 mmHg 60%
    15:00 +26°C° 0.1 mm 3 mps 763 mmHg 63%
    16:00 +25°C° 0.1 mm 3 mps 763 mmHg 66%
    17:00 +25°C° 0.1 mm 3 mps 763 mmHg 69%
    18:00 +24°C° 0 mm 3 mps 764 mmHg 71%
    19:00 +24°C° 0 mm 3 mps 764 mmHg 73%
    20:00 +23°C° 0 mm 2 mps 765 mmHg 75%
    21:00 +23°C° 0 mm 2 mps 765 mmHg 76%
    22:00 +23°C° 0 mm 2 mps 764 mmHg 77%
    23:00 +23°C° 0 mm 1 mps 764 mmHg 77%

    27 November, Monday

    Time Temperature Precipitation Wind Pressure Humidity
    00:00 +22°C° 0 mm 1 mps 764 mmHg 78%
    01:00 +22°C° 0 mm 1 mps 763 mmHg 78%
    02:00 +22°C° 0 mm 1 mps 763 mmHg 78%
    03:00 +22°C° 0 mm 1 mps 763 mmHg 78%
    04:00 +21°C° 0 mm 2 mps 763 mmHg 78%
    05:00 +20°C° 0 mm 2 mps 763 mmHg 78%
    06:00 +23°C° 0 mm 2 mps 763 mmHg 73%
    07:00 +24°C° 0 mm 2 mps 763 mmHg 68%
    08:00 +25°C° 0 mm 2 mps 764 mmHg 63%
    09:00 +26°C° 0 mm 3 mps 763 mmHg 60%
    10:00 +27°C° 0 mm 3 mps 763 mmHg 56%
    11:00 +28°C° 0 mm 3 mps 762 mmHg 53%
    12:00 +28°C° 0 mm 4 mps 761 mmHg 53%
    13:00 +28°C° 0 mm 4 mps 761 mmHg 54%
    14:00 +28°C° 0 mm 5 mps 760 mmHg 54%
    15:00 +27°C° 0 mm 4 mps 760 mmHg 58%
    16:00 +26°C° 0 mm 4 mps 760 mmHg 61%
    17:00 +25°C° 0 mm 4 mps 760 mmHg 64%
    18:00 +25°C° 0 mm 4 mps 760 mmHg 67%
    19:00 +25°C° 0 mm 4 mps 760 mmHg 69%
    20:00 +23°C° 0 mm 4 mps 760 mmHg 72%
    21:00 +23°C° 0 mm 4 mps 760 mmHg 73%
    22:00 +23°C° 0 mm 4 mps 760 mmHg 74%
    23:00 +23°C° 0 mm 4 mps 759 mmHg 76%

    28 November, Tuesday

    Time Temperature Precipitation Wind Pressure Humidity
    00:00 +22°C° 0 mm 4 mps 759 mmHg 77%
    01:00 +22°C° 0 mm 4 mps 758 mmHg 78%
    02:00 +22°C° 0 mm 4 mps 758 mmHg 79%
    03:00 +22°C° 0 mm 4 mps 758 mmHg 80%
    04:00 +22°C° 0 mm 4 mps 758 mmHg 82%
    05:00 +22°C° 0 mm 4 mps 758 mmHg 83%
    06:00 +23°C° 0 mm 5 mps 758 mmHg 78%
    07:00 +24°C° 0 mm 6 mps 759 mmHg 73%
    08:00 +24°C° 0 mm 7 mps 759 mmHg 69%
    09:00 +27°C° 0 mm 8 mps 759 mmHg 64%
    10:00 +28°C° 0 mm 8 mps 758 mmHg 59%
    11:00 +29°C° 0 mm 8 mps 758 mmHg 54%
    12:00 +29°C° 0 mm 8 mps 757 mmHg 54%
    13:00 +29°C° 0 mm 8 mps 757 mmHg 54%
    14:00 +29°C° 0 mm 8 mps 756 mmHg 55%
    15:00 +28°C° 0 mm 8 mps 757 mmHg 59%
    16:00 +27°C° 0 mm 7 mps 757 mmHg 64%
    17:00 +26°C° 0 mm 6 mps 757 mmHg 69%
    18:00 +26°C° 0 mm 6 mps 758 mmHg 70%
    19:00 +26°C° 0 mm 6 mps 759 mmHg 72%
    20:00 +25°C° 0 mm 5 mps 760 mmHg 74%
    21:00 +25°C° 0 mm 5 mps 760 mmHg 75%
    22:00 +25°C° 0 mm 5 mps 760 mmHg 77%
    23:00 +25°C° 0 mm 4 mps 760 mmHg 78%

    29 November, Wednesday

    Time Temperature Precipitation Wind Pressure Humidity
    00:00 +23°C° 0 mm 4 mps 760 mmHg 79%
    01:00 +24°C° 0 mm 3 mps 760 mmHg 81%
    02:00 +24°C° 0 mm 3 mps 760 mmHg 82%
    03:00 +23°C° 0 mm 2 mps 761 mmHg 83%
    04:00 +23°C° 0 mm 2 mps 761 mmHg 84%
    05:00 +23°C° 0 mm 2 mps 762 mmHg 85%
    06:00 +24°C° 0.1 mm 2 mps 762 mmHg 81%
    07:00 +25°C° 0.1 mm 2 mps 763 mmHg 76%
    08:00 +26°C° 0.1 mm 2 mps 764 mmHg 71%
    09:00 +26°C° 0.1 mm 3 mps 764 mmHg 67%
    10:00 +26°C° 0.1 mm 3 mps 764 mmHg 64%
    11:00 +27°C° 0.1 mm 3 mps 764 mmHg 60%
    12:00 +27°C° 0.1 mm 3 mps 763 mmHg 58%
    13:00 +28°C° 0.1 mm 3 mps 763 mmHg 55%
    14:00 +28°C° 0.1 mm 3 mps 762 mmHg 53%
    15:00 +27°C° 0 mm 3 mps 762 mmHg 57%
    16:00 +26°C° 0 mm 4 mps 763 mmHg 61%
    17:00 +25°C° 0 mm 4 mps 763 mmHg 66%
    18:00 +23°C° 0 mm 4 mps 763 mmHg 68%
    19:00 +24°C° 0 mm 3 mps 763 mmHg 71%
    20:00 +22°C° 0 mm 3 mps 764 mmHg 73%
    21:00 +22°C° 0 mm 3 mps 763 mmHg 73%
    22:00 +21°C° 0 mm 2 mps 763 mmHg 74%
    23:00 +21°C° 0 mm 2 mps 763 mmHg 74%
    Show more